Location: *
(45.5667°S, 177.5167°W)
Time: 17:01:01
(UTC+00:00)

USA 281 - Pass Details

Date: 29 May 2022
Orbit: 1070 x 1089 km, 106.0° (Epoch: 20 June)

Event Time Altitude Azimuth Distance (km) Brightness Sun altitude
Exits shadow 07:08:02 29° 169° (S) 1,877 4.3 -29.2°
Maximum altitude 07:11:30 63° 239° (WSW) 1,200 3.5 -29.8°
Drops below altitude 10° 07:17:56 10° 318° (NW) 2,908 5.9 -30.9°
Sets 07:20:27 0° 321° (NW) 3,856 6.6 -31.3°
